QPF
0.00 0.00 0.01 0.00 0.00 0.00 0.00 0.00 0.00 0.00 0.00 0.00 0.00 0.00 0.00 0.00 0.00 0.00 0.00 0.00 0.00 0.00 0.00 0.00 0.00 0.00 0.01 0.01 0.01 0.02 0.02 0.03 0.05 0.06 0.08 0.09 0.10 0.12
0.00 0.00 0.00 0.00 0.00 0.00 0.00 0.00 0.00 0.00 0.00 0.00 0.00 0.00 0.00 0.00 0.00 0.00 0.00 0.00 0.00 0.00 0.00 0.00 0.00 0.00 0.00 0.00 0.01 0.01 0.01 0.01 0.02 0.03 0.04 0.05 0.05 0.06
0.00 0.00 0.00 0.00 0.01 0.01 0.00 0.00 0.00 0.00 0.00 0.00 0.00 0.00 0.00 0.00 0.00 0.00 0.00 0.00 0.00 0.00 0.00 0.00 0.00 0.00 0.00 0.00 0.00 0.00 0.00 0.00 0.01 0.01 0.02 0.03 0.04 0.04
0.00 0.00 0.00 0.00 0.01 0.01 0.01 0.00 0.00 0.01 0.01 0.00 0.00 0.00 0.00 0.00 0.00 0.00 0.00 0.00 0.00 0.00 0.00 0.00 0.00 0.00 0.00 0.00 0.00 0.00 0.00 0.00 0.00 0.00 0.01 0.01 0.02 0.02
0.00 0.00 0.00 0.00 0.00 0.01 0.01 0.00 0.00 0.00 0.01 0.01 0.00 0.00 0.00 0.00 0.00 0.00 0.00 0.00 0.00 0.00 0.00 0.00 0.00 0.00 0.00 0.00 0.00 0.00 0.00 0.00 0.00 0.00 0.00 0.00 0.00 0.01
0.01 0.01 0.01 0.01 0.00 0.00 0.00 0.00 0.00 0.01 0.01 0.01 0.00 0.00 0.00 0.00 0.00 0.00 0.00 0.00 0.00 0.00 0.00 0.00 0.00 0.00 0.00 0.00 0.00 0.00 0.00 0.00 0.00 0.00 0.00 0.00 0.00 0.00
0.02 0.02 0.02 0.01 0.00 0.00 0.00 0.00 0.01 0.01 0.01 0.01 0.00 0.00 0.00 0.00 0.00 0.00 0.00 0.00 0.00 0.00 0.00 0.00 0.00 0.00 0.00 0.00 0.00 0.00 0.00 0.00 0.00 0.00 0.00 0.00 0.00 0.00
0.02 0.02 0.01 0.01 0.01 0.00 0.00 0.00 0.00 0.01 0.01 0.01 0.01 0.00 0.01 0.01 0.01 0.00 0.00 0.00 0.00 0.00 0.01 0.00 0.00 0.00 0.00 0.00 0.00 0.00 0.00 0.00 0.00 0.00 0.00 0.00 0.00 0.00
0.01 0.01 0.01 0.01 0.01 0.01 0.01 0.00 0.00 0.00 0.00 0.00 0.00 0.00 0.01 0.01 0.01 0.01 0.01 0.01 0.01 0.01 0.01 0.00 0.00 0.00 0.00 0.00 0.00 0.00 0.00 0.00 0.00 0.00 0.00 0.00 0.00 0.00
0.01 0.01 0.01 0.02 0.02 0.02 0.02 0.02 0.02 0.01 0.01 0.01 0.00 0.00 0.00 0.01 0.01 0.01 0.01 0.01 0.01 0.00 0.01 0.00 0.00 0.00 0.00 0.00 0.00 0.00 0.00 0.00 0.00 0.00 0.00 0.00 0.00 0.00
0.00 0.01 0.01 0.01 0.01 0.01 0.01 0.01 0.01 0.01 0.01 0.01 0.01 0.00 0.00 0.00 0.00 0.01 0.01 0.01 0.00 0.00 0.01 0.01 0.00 0.00 0.00 0.00 0.00 0.00 0.00 0.00 0.00 0.00 0.00 0.00 0.00 0.00
0.01 0.01 0.01 0.01 0.01 0.01 0.01 0.02 0.01 0.01 0.02 0.02 0.02 0.01 0.00 0.00 0.00 0.00 0.00 0.01 0.00 0.00 0.00 0.01 0.01 0.01 0.01 0.00 0.00 0.00 0.00 0.00 0.00 0.00 0.00 0.00 0.00 0.00
0.00 0.00 0.01 0.01 0.01 0.01 0.01 0.01 0.01 0.01 0.02 0.02 0.02 0.02 0.02 0.01 0.01 0.01 0.01 0.00 0.00 0.00 0.00 0.02 0.01 0.02 0.02 0.01 0.00 0.00 0.01 0.01 0.01 0.01 0.00 0.00 0.00 0.00
0.00 0.00 0.00 0.00 0.00 0.00 0.00 0.00 0.00 0.00 0.01 0.01 0.01 0.01 0.01 0.01 0.01 0.02 0.03 0.03 0.02 0.01 0.01 0.02 0.03 0.02 0.02 0.02 0.01 0.00 0.00 0.00 0.01 0.02 0.02 0.01 0.00 0.00
0.00 0.00 0.00 0.00 0.00 0.00 0.00 0.00 0.00 0.00 0.00 0.00 0.00 0.00 0.00 0.01 0.01 0.03 0.05 0.07 0.05 0.02 0.01 0.03 0.03 0.02 0.03 0.02 0.01 0.01 0.01 0.01 0.01 0.01 0.02 0.03 0.03 0.02
0.01 0.00 0.00 0.00 0.00 0.00 0.00 0.00 0.00 0.00 0.00 0.01 0.01 0.01 0.01 0.02 0.02 0.03 0.05 0.08 0.08 0.05 0.04 0.04 0.04 0.05 0.04 0.03 0.02 0.01 0.02 0.01 0.01 0.02 0.03 0.03 0.04 0.04
0.01 0.01 0.01 0.01 0.01 0.01 0.02 0.02 0.03 0.04 0.04 0.03 0.03 0.03 0.04 0.04 0.04 0.05 0.07 0.09 0.09 0.06 0.05 0.06 0.07 0.09 0.07 0.07 0.06 0.03 0.03 0.02 0.01 0.02 0.04 0.03 0.02 0.03
0.01 0.00 0.00 0.01 0.01 0.02 0.03 0.04 0.05 0.07 0.07 0.09 0.09 0.08 0.08 0.08 0.08 0.09 0.10 0.11 0.10 0.07 0.07 0.07 0.11 0.14 0.12 0.08 0.04 0.02 0.03 0.02 0.02 0.04 0.05 0.03 0.01 0.01
0.00 0.00 0.00 0.01 0.01 0.02 0.03 0.04 0.05 0.05 0.07 0.08 0.09 0.09 0.10 0.12 0.13 0.13 0.13 0.13 0.11 0.10 0.09 0.09 0.12 0.14 0.11 0.05 0.03 0.03 0.04 0.04 0.05 0.05 0.05 0.04 0.02 0.02
0.01 0.01 0.02 0.03 0.04 0.05 0.06 0.06 0.06 0.07 0.09 0.10 0.11 0.13 0.15 0.16 0.16 0.16 0.15 0.14 0.14 0.14 0.13 0.12 0.12 0.12 0.11 0.09 0.07 0.05 0.03 0.03 0.05 0.04 0.04 0.05 0.04 0.02
0.03 0.04 0.04 0.05 0.06 0.07 0.07 0.07 0.09 0.10 0.11 0.13 0.15 0.17 0.19 0.20 0.17 0.16 0.15 0.15 0.15 0.15 0.12 0.09 0.09 0.11 0.13 0.13 0.08 0.03 0.03 0.02 0.02 0.05 0.06 0.07 0.06 0.06
0.05 0.05 0.06 0.06 0.06 0.07 0.08 0.08 0.09 0.09 0.11 0.13 0.15 0.16 0.17 0.18 0.17 0.16 0.15 0.15 0.15 0.13 0.11 0.11 0.14 0.17 0.15 0.13 0.08 0.04 0.05 0.05 0.05 0.02 0.02 0.03 0.04 0.04
0.05 0.05 0.06 0.06 0.07 0.08 0.08 0.09 0.10 0.11 0.12 0.14 0.16 0.17 0.18 0.18 0.17 0.16 0.15 0.15 0.15 0.14 0.14 0.13 0.14 0.16 0.14 0.11 0.09 0.07 0.05 0.06 0.09 0.07 0.03 0.01 0.01 0.01
MSLP
1019.35 1019.53 1019.73 1019.90 1020.03 1020.11 1020.12 1020.07 1019.97 1019.84 1019.69 1019.52 1019.34 1019.17 1018.99 1018.82 1018.65 1018.51 1018.39 1018.32 1018.30 1018.32 1018.39 1018.49 1018.59 1018.68 1018.73 1018.74 1018.69 1018.61 1018.51 1018.41 1018.33 1018.30 1018.34 1018.44 1018.61 1018.83
1019.11 1019.29 1019.47 1019.62 1019.74 1019.82 1019.84 1019.81 1019.75 1019.66 1019.55 1019.43 1019.28 1019.11 1018.91 1018.70 1018.47 1018.25 1018.05 1017.89 1017.80 1017.77 1017.81 1017.91 1018.03 1018.17 1018.28 1018.36 1018.38 1018.35 1018.28 1018.19 1018.11 1018.05 1018.03 1018.07 1018.17 1018.33
1018.79 1018.96 1019.12 1019.27 1019.38 1019.45 1019.48 1019.48 1019.46 1019.42 1019.36 1019.28 1019.18 1019.03 1018.84 1018.60 1018.33 1018.04 1017.76 1017.51 1017.33 1017.23 1017.22 1017.28 1017.41 1017.56 1017.72 1017.86 1017.95 1017.99 1017.99 1017.95 1017.89 1017.84 1017.81 1017.82 1017.88 1017.99
1018.41 1018.58 1018.73 1018.86 1018.96 1019.03 1019.08 1019.11 1019.13 1019.14 1019.13 1019.11 1019.05 1018.94 1018.77 1018.53 1018.24 1017.90 1017.56 1017.23 1016.97 1016.78 1016.69 1016.70 1016.78 1016.92 1017.10 1017.27 1017.41 1017.52 1017.58 1017.60 1017.60 1017.59 1017.59 1017.61 1017.65 1017.73
1017.99 1018.15 1018.30 1018.43 1018.53 1018.61 1018.67 1018.72 1018.77 1018.83 1018.88 1018.91 1018.90 1018.84 1018.71 1018.49 1018.20 1017.84 1017.46 1017.08 1016.73 1016.46 1016.28 1016.20 1016.22 1016.31 1016.45 1016.62 1016.78 1016.92 1017.03 1017.12 1017.18 1017.23 1017.28 1017.33 1017.40 1017.47
1017.52 1017.69 1017.85 1017.98 1018.09 1018.18 1018.25 1018.32 1018.40 1018.48 1018.57 1018.64 1018.69 1018.68 1018.59 1018.41 1018.15 1017.81 1017.42 1017.01 1016.62 1016.27 1016.01 1015.83 1015.75 1015.76 1015.82 1015.94 1016.08 1016.22 1016.35 1016.48 1016.59 1016.70 1016.81 1016.92 1017.03 1017.13
1017.00 1017.18 1017.36 1017.51 1017.63 1017.73 1017.82 1017.90 1017.98 1018.08 1018.18 1018.28 1018.36 1018.39 1018.36 1018.24 1018.03 1017.73 1017.37 1016.97 1016.55 1016.16 1015.83 1015.56 1015.38 1015.27 1015.24 1015.26 1015.33 1015.43 1015.56 1015.69 1015.84 1016.00 1016.16 1016.33 1016.49 1016.64
1016.40 1016.61 1016.81 1016.98 1017.13 1017.24 1017.34 1017.42 1017.50 1017.58 1017.69 1017.79 1017.88 1017.94 1017.95 1017.89 1017.75 1017.52 1017.21 1016.85 1016.45 1016.05 1015.68 1015.34 1015.06 1014.85 1014.70 1014.62 1014.60 1014.62 1014.70 1014.81 1014.96 1015.14 1015.35 1015.57 1015.79 1015.99
1015.74 1015.97 1016.20 1016.40 1016.57 1016.70 1016.79 1016.86 1016.92 1016.98 1017.05 1017.13 1017.21 1017.28 1017.32 1017.31 1017.24 1017.09 1016.87 1016.58 1016.23 1015.86 1015.48 1015.11 1014.76 1014.46 1014.21 1014.02 1013.90 1013.83 1013.83 1013.90 1014.03 1014.21 1014.44 1014.69 1014.95 1015.20
1015.03 1015.29 1015.54 1015.77 1015.95 1016.08 1016.17 1016.21 1016.23 1016.25 1016.27 1016.30 1016.35 1016.41 1016.46 1016.49 1016.48 1016.41 1016.28 1016.08 1015.82 1015.51 1015.16 1014.80 1014.43 1014.08 1013.76 1013.48 1013.26 1013.11 1013.04 1013.05 1013.13 1013.29 1013.51 1013.76 1014.04 1014.31
1014.34 1014.62 1014.88 1015.12 1015.30 1015.42 1015.48 1015.49 1015.46 1015.41 1015.37 1015.34 1015.34 1015.37 1015.41 1015.46 1015.50 1015.50 1015.46 1015.36 1015.20 1014.97 1014.69 1014.37 1014.02 1013.66 1013.31 1012.99 1012.71 1012.49 1012.36 1012.30 1012.33 1012.44 1012.63 1012.86 1013.12 1013.39
1013.74 1014.00 1014.26 1014.48 1014.64 1014.73 1014.76 1014.71 1014.62 1014.51 1014.39 1014.29 1014.23 1014.22 1014.24 1014.29 1014.35 1014.41 1014.45 1014.44 1014.38 1014.25 1014.06 1013.81 1013.52 1013.19 1012.86 1012.53 1012.22 1011.97 1011.79 1011.68 1011.66 1011.72 1011.84 1012.03 1012.25 1012.47
1013.27 1013.50 1013.71 1013.88 1014.00 1014.04 1014.01 1013.90 1013.75 1013.57 1013.38 1013.21 1013.09 1013.02 1013.01 1013.05 1013.13 1013.22 1013.31 1013.38 1013.40 1013.37 1013.27 1013.12 1012.91 1012.65 1012.36 1012.06 1011.77 1011.52 1011.31 1011.17 1011.10 1011.09 1011.16 1011.27 1011.42 1011.58
1012.95 1013.10 1013.24 1013.33 1013.37 1013.34 1013.24 1013.07 1012.86 1012.61 1012.36 1012.14 1011.96 1011.85 1011.80 1011.82 1011.89 1012.00 1012.12 1012.24 1012.33 1012.38 1012.37 1012.31 1012.18 1012.01 1011.79 1011.55 1011.30 1011.07 1010.86 1010.70 1010.59 1010.53 1010.52 1010.56 1010.62 1010.69
1012.73 1012.78 1012.81 1012.81 1012.75 1012.63 1012.46 1012.23 1011.95 1011.66 1011.36 1011.10 1010.89 1010.73 1010.66 1010.65 1010.71 1010.81 1010.94 1011.08 1011.22 1011.32 1011.38 1011.39 1011.35 1011.26 1011.12 1010.95 1010.76 1010.56 1010.37 1010.20 1010.06 1009.95 1009.88 1009.83 1009.81 1009.79
1012.54 1012.47 1012.38 1012.26 1012.10 1011.89 1011.64 1011.35 1011.03 1010.70 1010.38 1010.10 1009.86 1009.69 1009.59 1009.56 1009.59 1009.68 1009.81 1009.95 1010.10 1010.23 1010.34 1010.40 1010.43 1010.40 1010.33 1010.22 1010.08 1009.93 1009.76 1009.59 1009.43 1009.29 1009.16 1009.04 1008.94 1008.85
1012.26 1012.07 1011.87 1011.64 1011.38 1011.09 1010.77 1010.44 1010.09 1009.74 1009.42 1009.13 1008.89 1008.72 1008.60 1008.56 1008.57 1008.63 1008.74 1008.87 1009.01 1009.15 1009.27 1009.37 1009.43 1009.45 1009.43 1009.37 1009.27 1009.14 1009.00 1008.83 1008.66 1008.49 1008.32 1008.15 1008.00 1007.84
1011.80 1011.53 1011.23 1010.91 1010.58 1010.23 1009.87 1009.50 1009.15 1008.80 1008.49 1008.21 1007.98 1007.81 1007.69 1007.63 1007.63 1007.67 1007.74 1007.85 1007.97 1008.09 1008.21 1008.31 1008.39 1008.43 1008.44 1008.40 1008.33 1008.22 1008.08 1007.92 1007.74 1007.55 1007.35 1007.16 1006.97 1006.79
1011.14 1010.80 1010.45 1010.08 1009.71 1009.33 1008.95 1008.58 1008.23 1007.91 1007.61 1007.35 1007.14 1006.97 1006.85 1006.78 1006.76 1006.77 1006.82 1006.90 1006.99 1007.10 1007.20 1007.29 1007.37 1007.41 1007.42 1007.39 1007.32 1007.21 1007.06 1006.89 1006.70 1006.50 1006.30 1006.09 1005.90 1005.72
1010.31 1009.95 1009.58 1009.20 1008.82 1008.44 1008.08 1007.73 1007.40 1007.10 1006.82 1006.58 1006.38 1006.22 1006.09 1006.01 1005.96 1005.95 1005.98 1006.03 1006.10 1006.18 1006.27 1006.34 1006.40 1006.43 1006.43 1006.38 1006.30 1006.17 1006.01 1005.83 1005.62 1005.41 1005.20 1004.99 1004.81 1004.65
1009.40 1009.05 1008.70 1008.35 1007.99 1007.65 1007.32 1007.00 1006.70 1006.42 1006.16 1005.93 1005.73 1005.56 1005.42 1005.32 1005.25 1005.22 1005.22 1005.25 1005.30 1005.37 1005.43 1005.49 1005.53 1005.54 1005.52 1005.45 1005.34 1005.18 1004.99 1004.78 1004.55 1004.33 1004.11 1003.91 1003.74 1003.60
1008.53 1008.22 1007.91 1007.60 1007.30 1007.00 1006.72 1006.44 1006.16 1005.90 1005.66 1005.42 1005.21 1005.02 1004.86 1004.73 1004.63 1004.57 1004.55 1004.56 1004.60 1004.65 1004.71 1004.76 1004.79 1004.78 1004.73 1004.63 1004.48 1004.29 1004.06 1003.81 1003.55 1003.30 1003.07 1002.86 1002.70 1002.58
1007.83 1007.56 1007.29 1007.03 1006.78 1006.54 1006.29 1006.05 1005.80 1005.55 1005.29 1005.04 1004.80 1004.58 1004.38 1004.21 1004.09 1004.00 1003.96 1003.96 1003.99 1004.04 1004.09 1004.14 1004.15 1004.13 1004.06 1003.93 1003.74 1003.51 1003.24 1002.94 1002.64 1002.36 1002.09 1001.87 1001.70 1001.58
Thickness
5707 5705 5702 5703 5702 5700 5697 5694 5686 5681 5683 5689 5690 5692 5690 5688 5685 5683 5682 5681 5680 5680 5680 5680 5681 5681 5682 5683 5684 5685 5686 5687 5688 5689 5690 5691 5692 5693
5704 5702 5700 5700 5699 5697 5694 5692 5689 5683 5679 5684 5686 5689 5687 5685 5683 5681 5680 5679 5678 5678 5678 5677 5677 5677 5678 5678 5679 5680 5681 5682 5683 5684 5685 5686 5688 5689
5702 5700 5698 5696 5694 5693 5691 5689 5686 5683 5677 5680 5683 5685 5683 5681 5680 5678 5677 5677 5677 5676 5676 5676 5675 5674 5674 5674 5674 5675 5675 5676 5677 5679 5680 5681 5683 5685
5698 5697 5695 5694 5691 5688 5686 5685 5683 5682 5677 5674 5676 5678 5679 5679 5678 5676 5675 5676 5676 5676 5675 5674 5673 5671 5671 5670 5670 5670 5670 5671 5672 5673 5674 5676 5677 5679
5697 5694 5692 5690 5687 5685 5683 5681 5680 5680 5677 5673 5672 5674 5675 5675 5674 5673 5673 5673 5673 5673 5674 5672 5670 5668 5667 5666 5666 5666 5666 5666 5666 5667 5668 5669 5671 5673
5694 5692 5690 5687 5684 5682 5679 5677 5675 5673 5672 5670 5669 5669 5670 5672 5670 5667 5666 5668 5668 5670 5670 5669 5667 5666 5664 5663 5663 5662 5662 5661 5661 5662 5662 5663 5665 5666
5691 5689 5687 5685 5683 5680 5678 5675 5672 5669 5667 5665 5664 5664 5664 5664 5663 5663 5661 5662 5663 5665 5664 5664 5664 5663 5661 5660 5659 5658 5658 5657 5657 5657 5657 5658 5659 5660
5687 5685 5684 5682 5680 5677 5674 5672 5668 5664 5662 5660 5658 5657 5658 5659 5658 5657 5654 5653 5652 5657 5657 5657 5658 5658 5658 5658 5658 5657 5656 5654 5653 5653 5652 5652 5653 5654
5682 5680 5679 5681 5678 5675 5672 5668 5665 5662 5658 5655 5653 5652 5652 5652 5651 5649 5648 5646 5646 5649 5648 5648 5650 5651 5653 5654 5654 5654 5652 5651 5649 5648 5648 5648 5648 5649
5677 5675 5673 5673 5672 5670 5667 5665 5663 5661 5658 5653 5651 5651 5650 5648 5646 5644 5642 5641 5643 5644 5643 5640 5643 5644 5648 5649 5649 5649 5648 5647 5645 5644 5644 5643 5643 5643
5672 5671 5669 5668 5667 5663 5660 5658 5657 5657 5656 5654 5652 5651 5648 5645 5641 5637 5634 5632 5633 5636 5638 5636 5638 5639 5640 5642 5643 5643 5643 5642 5641 5640 5639 5638 5637 5637
5666 5666 5664 5662 5660 5657 5653 5651 5649 5650 5649 5648 5646 5644 5642 5640 5636 5631 5629 5625 5626 5628 5633 5631 5631 5630 5630 5635 5636 5637 5636 5636 5635 5634 5633 5632 5630 5628
5658 5657 5657 5655 5651 5648 5645 5643 5643 5641 5639 5639 5638 5638 5637 5637 5635 5632 5627 5623 5621 5623 5627 5624 5623 5622 5621 5623 5626 5628 5629 5629 5629 5628 5627 5626 5625 5622
5648 5648 5646 5643 5640 5637 5634 5633 5632 5628 5628 5628 5628 5630 5630 5630 5631 5630 5628 5624 5622 5620 5620 5617 5614 5612 5610 5611 5614 5618 5620 5621 5622 5622 5622 5622 5620 5619
5637 5636 5632 5629 5626 5626 5625 5623 5620 5618 5618 5618 5619 5621 5622 5623 5622 5622 5621 5619 5617 5615 5614 5611 5607 5605 5603 5602 5604 5607 5608 5612 5613 5614 5615 5615 5615 5614
5623 5622 5619 5618 5616 5615 5616 5614 5612 5611 5610 5610 5611 5612 5612 5612 5611 5611 5610 5609 5607 5608 5608 5606 5603 5599 5597 5597 5597 5598 5600 5601 5604 5606 5607 5608 5610 5610
5606 5605 5605 5606 5606 5607 5607 5606 5605 5604 5601 5601 5600 5599 5600 5599 5600 5600 5600 5600 5597 5597 5598 5599 5598 5596 5594 5591 5589 5591 5592 5594 5596 5597 5597 5598 5602 5604
5588 5591 5591 5592 5592 5593 5593 5593 5594 5593 5592 5591 5589 5589 5588 5588 5588 5589 5588 5588 5588 5589 5590 5590 5588 5586 5584 5586 5586 5584 5585 5587 5589 5590 5590 5590 5594 5598
5575 5578 5579 5579 5578 5578 5578 5578 5579 5579 5579 5578 5577 5577 5577 5577 5576 5576 5576 5576 5577 5579 5581 5581 5580 5576 5574 5577 5583 5581 5580 5581 5581 5582 5584 5585 5587 5592
5568 5567 5566 5565 5564 5563 5563 5563 5563 5563 5563 5562 5563 5564 5564 5564 5564 5565 5565 5566 5567 5569 5570 5572 5572 5572 5570 5572 5574 5577 5576 5575 5575 5576 5578 5580 5584 5587
5556 5554 5552 5551 5550 5549 5548 5547 5547 5547 5547 5548 5549 5550 5552 5553 5553 5555 5556 5557 5558 5559 5561 5564 5567 5568 5568 5566 5566 5570 5572 5573 5574 5573 5573 5573 5575 5578
5541 5539 5538 5536 5534 5533 5533 5533 5533 5533 5534 5535 5537 5539 5540 5542 5543 5545 5546 5548 5550 5553 5555 5558 5560 5560 5558 5558 5560 5563 5566 5568 5570 5570 5570 5572 5571 5572
5525 5523 5522 5521 5520 5519 5519 5519 5520 5520 5522 5523 5525 5528 5529 5531 5532 5535 5537 5539 5542 5544 5547 5549 5552 5553 5553 5554 5555 5557 5560 5562 5563 5564 5566 5570 5569 5571